Simultaneous Nadir Overpasses (SNOs) Predictions

Prediction of SNOs between AQUA and NOAA-19 Satellite Orbit:

Table of predicted SNOs for the next 14.0 days since TLE Epoch: 5/10/2025
Index Date (AQUA) Time (AQUA) Lat,Lon (AQUA) SZA (AQUA ) Date (NOAA-19) Time (NOAA-19) Lat,Lon (NOAA-19) SZA (NOAA-19 ) Distance(km) Time Diff (sec)
1 05/12/2025 06:16:41 75.64, 90.82 57.44 05/12/2025 06:15:28 75.58, 90.44 57.35 12.71 73
2 05/12/2025 07:06:00 -75.73,-101.78 122.49 05/12/2025 07:06:25 -75.75,-101.75 122.48 1.55 25
3 05/14/2025 08:24:02 -75.41,-120.31 123.29 05/14/2025 08:22:53 -75.30,-122.24 123.45 55.53 69
4 05/14/2025 09:13:28 75.75, 46.36 57.02 05/14/2025 09:13:39 75.73, 46.42 57.00 2.90 11
5 05/16/2025 11:20:53 -75.75,-165.42 123.48 05/16/2025 11:20:58 -75.74,-165.31 123.47 3.04 5
6 05/18/2025 13:28:19 75.74, -17.21 56.06 05/18/2025 13:28:11 75.71, -17.20 56.03 3.44 8
7 05/20/2025 15:35:42 -75.70, 131.13 124.42 05/20/2025 15:35:31 -75.71, 131.02 124.41 3.24 11
8 05/20/2025 16:25:08 76.05, -62.29 55.89 05/20/2025 16:26:17 76.06, -60.48 55.97 48.51 69
9 05/22/2025 17:43:07 75.72, -80.73 55.18 05/22/2025 17:42:42 75.71, -80.74 55.17 0.96 25



Historial Predications of SNOs between AQUA and NOAA-19
